Tracking 29892 objects as of 21-Nov-2024
HD Live streaming from Space Station
objects crossing your sky now

SL-8 DEB

Track SL-8 DEB now!
10-day predictions


NORAD ID: 29287
Int'l Code: 1981-120R
Perigee: 1,650.0 km
Apogee: 1,686.2 km
Inclination: 83.0 °
Period: 119.6 minutes
Semi major axis: 8039 km
RCS: 0.0075 m2 (small)
Launch date: December 17, 1981
Source: Commonwealth of Independent States (former USSR) (CIS)
Launch site: PLESETSK MISSILE AND SPACE COMPLEX (PKMTR)

Note: This is SATELLITE DEBRIS
Your satellite tracking list
Your tracking list is empty




NASA's NSSDC Master Catalog

Two Line Element Set (TLE):
1 29287U 81120R   24323.98359672  .00000159  00000-0  17516-2 0  9990
2 29287  82.9645  59.2554 0022524 135.6743 224.6124 12.04450981101128
Source of the keplerian elements: AFSPC